Погода в Степном

Россия / Еврейская автономная область     47°53′23″N   131°54′04″E
темп.,
°C
ветер,
м/с
пор.,
м/с
влажн.,
%
обл.,
%
осадки,
мм/ч
давл.,
гПа
погр.,
м
21 января, чт
чт2101:00−19св2398100 1.3 1016138
04:00−20сз2297100 1.7 101633
07:00−22зсз339630 0.0 101844
10:00−21з349115 0.0 102174
13:00−17з46760 0.0 1022604
16:00−16з46750 0.0 1022248
19:00−20з47780 0.0 1024107
22:00−23зсз33780 0.0 102444
22 января, пт
пт2201:00−25с22780 0.0 102423
04:00−25зсз12780 0.0 102420
07:00−25зсз22810 0.0 102420
10:00−24зюз12810 0.0 102522
13:00−19зюз22760 0.0 1026165
16:00−18юз01819 0.0 102530
19:00−21сз11750 0.0 102620
22:00−22сз22730 0.0 102820
23 января, сб
сб2301:00−23зсз12750 0.0 102820
04:00−23з11820 0.0 102920
07:00−24зюз12880 0.0 102820
10:00−22юз228917 0.0 102921
13:00−18ююз23860 0.0 1028222
16:00−17ююв229225 0.0 1026104
19:00−20вюв129664 0.0 102520
22:00−19вюв229468 0.0 102524
24 января, вс
вс2401:00−21юв119989 0.0 102520
04:00−21зсз0110084 0.0 102520
07:00−21сз119833 0.0 102620
10:00−20зсз119118 0.0 102920
13:00−15сз228135 0.0 1030154
16:00−14сз118458 0.0 103158
19:00−17с228276 0.0 103320
22:00−19с228169 0.0 103420
25 января, пн
пн2501:00−20с228215 0.0 103420
04:00−20с128013 0.0 103520
07:00−21с117841 0.0 103520
10:00−20в117955 0.0 103620
13:00−16вюв2276100 0.0 1034232
16:00−16в238776 0.0 1032205
19:00−18в3393100 0.0 103163
22:00−18всв2394100 0.0 102843